1328227229221,58.4850
1328227289221,58.4603
1328227349221,58.2994
1328227409221,58.5327
1328227469221,58.3411
1328227529221,58.4496
1328227589221,58.4424
1328227649221,58.5385
1328227709221,58.3469
1328227769221,58.5562
1328227829221,58.4389
1328227889221,58.4391
1328227949221,58.2289
1328228009221,58.4898
1328228069221,58.4021
1328228129221,58.3821
1328228189221,58.3809
1328228249221,58.3855
1328228309221,58.3953
1328228369221,58.3576
1328228429221,58.4012
1328228489221,58.4194
1328228549221,58.4548
1328228609221,58.3618
1328228669221,58.3779
1328228729221,58.3905
1328228789221,58.4317
1328228849221,58.2425
1328228909221,58.5188
1328228969221,58.2410
1328229029221,58.4395
1328229089221,58.2924
1328229149221,58.4097
1328229209221,58.3827
1328229269221,58.4502
1328229329221,58.5931
1328229389221,58.3317
1328229449221,58.4436
1328229509221,58.4474
1328229569221,58.4784
1328229629221,58.4365
1328229689221,58.3975
1328229749221,58.5277
1328229809221,58.3725
1328229869221,58.5230
1328229929221,58.4816
1328229989221,58.5333
1328230049221,58.2422
1328230109221,58.4814
1328230169221,58.4156
1328230229221,58.3886
1328230289221,58.3264
1328230349221,58.3876
1328230409221,58.2391
1328230469221,58.4508
1328230529221,58.4800
1328230589221,58.4966
1328230649221,58.3336
1328230709221,58.3409
1328230769221,58.3595
1328230829231,58.4024
1328230889231,58.4207
1328230949231,58.3446
1328231009231,58.4497
1328231069231,58.2994
1328231129231,58.3785
1328231189231,58.3741
1328231249231,58.4577
1328231309231,58.4540
1328231369231,58.3632
1328231429231,58.1842
1328231489231,58.6528
1328231549231,58.3507
1328231609231,58.1954
1328231669231,58.3015
1328231729231,58.3267
1328231789231,58.2551
1328231849231,58.2782
1328231909231,58.2649
1328231969231,58.1461
1328232029231,58.3183
1328232089231,58.3182
1328232149231,58.2413
1328232209231,58.2636
1328232269231,58.3847
1328232329231,58.1748
1328232389231,58.2615
1328232449231,58.1756
1328232509231,58.2113
1328232569231,58.1464
1328232629231,58.1395
1328232689231,58.2894
1328232749231,58.3310
1328232809231,58.2859
1328232869231,58.0671
1328232929231,58.0867
1328232989231,58.1065
1328233049231,58.0738
1328233109231,58.0876
1328233169231,58.1743
1328233229231,58.2070
1328233289231,58.2406
1328233349231,58.0933
1328233409231,58.2728
1328233469231,58.0824
1328233529231,58.0395
1328233589231,58.2988
1328233649231,58.1147
1328233709231,58.2266
1328233769231,58.1149
1328233829231,58.2674
1328233889231,58.0897
1328233949231,58.1743
1328234009231,58.1522
1328234069231,58.1809
1328234129231,58.2431
1328234189231,58.2966
1328234249231,58.1971
1328234309231,58.0368
1328234369231,57.9863
1328234429242,58.0899
1328234489242,58.1743
1328234549242,58.0401
1328234609242,57.9783
1328234669242,58.1320
1328234729242,58.0849
1328234789242,57.9860
1328234849242,57.9234
1328234909242,57.9641
1328234969242,57.8186
1328235029242,57.9132
1328235089242,57.9719
1328235149242,57.9346
1328235209242,57.9076
1328235269242,57.8865
1328235329242,57.9280
1328235389242,57.9241
1328235449242,58.0866
1328235509242,58.0302
1328235569242,57.8073
1328235629242,57.9296
1328235689242,57.8638
1328235749242,57.9352
1328235809242,57.7459
1328235869242,57.8956
1328235929242,58.0367
1328235989242,57.9242
1328236049242,57.8443
1328236109242,57.8454
1328236169242,57.8608
1328236229242,57.7232
1328236289242,57.7378
1328236349242,57.8131
1328236409242,57.8628
1328236469242,57.8083
1328236529242,57.6024
1328236589242,57.8935
1328236649242,57.6023
1328236709242,57.6910
1328236769242,57.6692
1328236829242,57.6638
1328236889242,57.7809
1328236949242,57.8417
1328237009242,57.8633
1328237069242,57.6272
1328237129242,57.6179
1328237189242,57.7846
1328237249242,57.8092
1328237309242,57.7727
1328237369242,57.6534
1328237429242,57.6126
1328237489242,57.6247
1328237549242,57.6990
1328237609242,57.7474
1328237669242,57.6279
1328237729242,57.7804
1328237789242,57.7386
1328237849242,57.7227
1328237909242,57.7360
1328237969242,57.5465
1328238029253,57.7951
1328238089253,57.9072
1328238149253,57.6983
1328238209253,57.5729
1328238269253,57.7134
1328238329253,57.4875
1328238389253,57.5771
1328238449253,57.7809
1328238509253,57.6184
1328238569253,57.5002
1328238629253,57.4165
1328238689253,57.5324
1328238749253,57.7236
1328238809253,57.4879
1328238869253,57.5619
1328238929253,57.6648
1328238989253,57.6338
1328239049253,57.4977
1328239109253,57.7307
1328239169253,57.6503
1328239229253,57.6271
1328239289253,57.5410
1328239349253,57.4348
1328239409253,57.5950
1328239469253,57.5852
1328239529253,57.7074
1328239589253,57.6675
1328239649253,57.7556
1328239709253,57.5415
1328239769253,57.5238
1328239829253,57.6682
1328239889253,57.6174
1328239949253,57.6864
1328240009253,57.5640
1328240069253,57.6475
1328240129253,57.4978
1328240189253,57.7688
1328240249253,57.4741
1328240309253,57.5542
1328240369253,57.7439
1328240429253,57.5484
1328240489253,57.6851
1328240549253,57.5465
1328240609253,57.6395
1328240669253,57.5623
1328240729253,57.4427
1328240789253,57.4865
1328240849253,57.5502
1328240909253,57.5716
1328240969253,57.7330
1328241029253,57.6731
1328241089253,57.5270
1328241149253,57.6985
1328241209253,57.4001
1328241269253,57.5578
1328241329253,57.4491
1328241389253,57.4678
1328241449253,57.5534
1328241509253,57.3657
1328241569253,57.5207
1328241629264,57.5356
1328241689264,57.6087
1328241749264,57.4686
1328241809264,57.5114
1328241869264,57.6866
1328241929264,57.5894
1328241989264,57.5711
1328242049264,57.4999
1328242109264,57.5939
1328242169264,57.4816
1328242229264,57.6812
1328242289264,57.5791
1328242349264,57.3923
1328242409264,57.5338
1328242469264,57.5286
1328242529264,57.6877
1328242589264,57.4157
1328242649264,57.6107
1328242709264,57.5671
1328242769264,57.7330
1328242829264,57.7438
1328242889264,57.7252
1328242949264,57.4660
1328243009264,57.5718
1328243069264,57.7385
1328243129264,57.6927
1328243189264,57.6853
1328243249264,57.6418
1328243309264,57.6944
1328243369264,57.7867
1328243429264,57.6402
1328243489264,57.5854
1328243549264,57.6430
1328243609264,57.7451
1328243669264,57.6440
1328243729264,57.7406
1328243789264,57.6721
1328243849264,57.5692
1328243909264,57.7139
1328243969264,57.6970
1328244029264,57.7865
1328244089264,57.8411
1328244149264,57.6659
1328244209264,57.6969
1328244269264,57.6458
1328244329264,57.6878
1328244389264,57.7989
1328244449264,57.6699
1328244509264,57.6418
1328244569264,57.7802
1328244629264,57.6386
1328244689264,57.5183
1328244749264,57.7347
1328244809264,57.5534
1328244869264,57.6490
1328244929264,57.6113
1328244989264,57.7692
1328245049264,57.6874
1328245109264,57.6276
1328245169264,57.6002
1328245229275,57.8285
1328245289275,57.8083
1328245349275,57.6497
1328245409275,57.7059
1328245469275,57.7554
1328245529275,57.6541
1328245589275,57.6626
1328245649275,57.6330
1328245709275,57.7644
1328245769275,57.6803
1328245829275,57.8722
1328245889275,57.7185
1328245949275,57.7246
1328246009275,57.5602
1328246069275,57.6460
1328246129275,57.5847
1328246189275,57.6719
1328246249275,57.5860
1328246309275,57.6393
1328246369275,57.8381
1328246429275,57.7921
1328246489275,57.6370
1328246549275,57.5910
1328246609275,57.7078
1328246669275,57.6175
1328246729275,57.5620
1328246789275,57.5394
1328246849275,57.7671
1328246909275,57.4001
1328246969275,57.5292
1328247029275,57.5758
1328247089275,57.4991
1328247149275,57.4201
1328247209275,57.4490
1328247269275,57.4483
1328247329275,57.5345
1328247389275,57.4926
1328247449275,57.3511
1328247509275,57.8290
1328247569275,57.4795
1328247629275,57.5180
1328247689275,57.5698
1328247749275,57.5687
1328247809275,57.6048
1328247869275,57.3361
1328247929275,57.4527
1328247989275,57.3917
1328248049275,57.4653
1328248109275,57.5313
1328248169275,57.4762
1328248229275,57.5006
1328248289275,57.6507
1328248349275,57.4372
1328248409275,57.5058
1328248469275,57.4857
1328248529275,57.5012
1328248589275,57.5327
1328248649275,57.4651
1328248709275,57.3498
1328248769275,57.4343
1328248829286,57.3193
1328248889286,57.5251
1328248949286,57.3963
1328249009286,57.5038
1328249069286,57.4878
1328249129286,57.5040
1328249189286,57.4647
1328249249287,57.4178
1328249309286,57.4389
1328249369286,57.3609
1328249429286,57.3076
1328249489286,57.2673
1328249549286,57.4022
1328249609287,57.3678
1328249669287,57.4559
1328249729287,57.3860
1328249789287,57.2771
1328249849287,57.3083
1328249909287,57.3092
1328249969286,57.3229
1328250029286,57.4622
1328250089286,57.4463
1328250149286,57.3794
1328250209286,57.5448
1328250269286,57.3665
1328250329286,57.4014
1328250389286,57.4923
1328250449286,57.4019
1328250509286,57.4844
1328250569286,57.6416
1328250629287,57.4052
1328250689286,57.6301
1328250749286,57.6011
1328250809286,57.5191
1328250869286,57.4244
1328250929287,57.2967
1328250989287,57.4671
1328251049287,57.5077
1328251109287,57.3697
1328251169287,57.5040
1328251229287,57.4241
1328251289287,57.6564
1328251349286,57.4589
1328251409286,57.4084
1328251469286,57.4872
1328251529286,57.2640
1328251589286,57.4275
1328251649286,57.2912
1328251709286,57.4904
1328251769286,57.3655
1328251829286,57.5062
1328251889286,57.3774
1328251949287,57.4123
1328252009286,57.3416
1328252069286,57.4315
1328252129286,57.2581
1328252189286,57.3850
1328252249286,57.4020
1328252309287,57.4841
1328252369287,57.3609
1328252429298,57.3519
1328252489298,57.3964
1328252549298,57.3724
1328252609298,57.3748
1328252669298,57.2476
1328252729298,57.2892
1328252789298,57.3502
1328252849298,57.4285
1328252909298,57.3052
1328252969298,57.5259
1328253029298,57.4103
1328253089298,57.2874
1328253149298,57.2438
1328253209298,57.2186
1328253269298,57.3549
1328253329298,57.3218
1328253389298,57.1674
1328253449298,57.1838
1328253509298,57.4465
1328253569298,57.3168
1328253629298,57.2316
1328253689298,57.2469
1328253749298,57.3355
1328253809298,57.2585
1328253869298,57.3250
1328253929298,57.3807
1328253989298,57.2981
1328254049298,57.3838
1328254109298,57.2510
1328254169298,57.3017
1328254229298,57.2496
1328254289298,57.2488
1328254349298,57.2858
1328254409298,57.2114
1328254469298,57.1581
1328254529298,57.2598
1328254589298,57.2467
1328254649298,57.2724
1328254709298,59.4283
1328254769298,57.2419
1328254829298,57.4646
1328254889298,57.3923
1328254949298,57.2749
1328255009298,57.4505
1328255069298,57.3284
1328255129298,57.2257
1328255189298,57.2607
1328255249298,57.2929
1328255309298,57.1930
1328255369298,57.2042
1328255429298,57.2629
1328255489298,57.2351
1328255549298,57.3784
1328255609298,57.1864
1328255669298,57.2691
1328255729298,57.3919
1328255789298,57.2253
1328255849298,57.3239
1328255909298,57.2464
1328255969298,57.2710
1328256029310,57.2543
1328256089310,57.2767
1328256149310,57.2537
1328256209310,57.2499
1328256269310,57.1093
1328256329310,57.3165
1328256389310,57.1352
1328256449310,57.2956
1328256509310,57.2649
1328256569310,57.2090
1328256629310,57.3134
1328256689310,57.2826
1328256749310,57.2221
1328256809310,57.3029
1328256869310,57.3461
1328256929310,57.0298
1328256989310,57.2252
1328257049310,57.1898
1328257109310,57.3237
1328257169310,57.0592
1328257229310,57.3090
1328257289310,57.1074
1328257349310,57.0674
1328257409310,57.1642
1328257469310,57.2340
1328257529310,57.1302
1328257589310,57.1297
1328257649310,57.0957
1328257709310,57.2725
1328257769310,57.0381
1328257829310,57.2863
1328257889310,57.0307
1328257949310,57.0623
1328258009310,57.0743
1328258069310,57.1828
1328258129310,57.2684
1328258189310,57.0868
1328258249310,57.1731
1328258309310,57.2699
1328258369310,57.1927
1328258429310,57.2271
1328258489310,57.4589
1328258549310,57.0509
1328258609310,57.2339
1328258669310,57.3219
1328258729310,57.2510
1328258789310,57.2215
1328258849310,57.3637
1328258909310,57.1986
1328258969310,57.3732
1328259029310,57.0901
1328259089310,57.1768
1328259149310,57.0104
1328259209310,57.3276
1328259269310,57.2942
1328259329310,57.1276
1328259389310,57.1362
1328259449310,57.1975
1328259509310,57.3974
1328259569310,57.0982
1328259629321,57.1572
1328259689321,57.3246
1328259749321,57.3344
1328259809321,57.3046
1328259869321,57.2795
1328259929321,57.1815
1328259989321,57.2411
1328260049321,57.2190
1328260109321,57.1383
1328260169321,57.1344
1328260229321,57.2914
1328260289321,57.3900
1328260349321,57.0741
1328260409321,57.2916
1328260469321,57.2651
1328260529321,57.2249
1328260589321,57.3263
1328260649321,57.1241
1328260709321,57.3393
1328260769321,57.1179
1328260829321,57.2360
1328260889321,57.1690
1328260949321,57.0604
1328261009321,57.0645
1328261069321,57.1396
1328261129321,57.0886
1328261189321,57.1477
1328261249321,56.9762
1328261309321,57.1989
1328261369321,57.0528
1328261429321,57.2106
1328261489321,57.2032
1328261549321,57.2391
1328261609321,57.1306
1328261669321,57.2076
1328261729321,57.3150
1328261789321,57.2962
1328261849321,57.1411
1328261909321,57.1936
1328261969321,57.2062
1328262029321,57.1770
1328262089321,57.1254
1328262149321,57.1880
1328262209321,57.2662
1328262269321,57.1428
1328262329321,57.3250
1328262389321,57.1387
1328262449321,57.3219
1328262509321,57.0948
1328262569321,57.2141
1328262629321,57.0615
1328262689321,57.2172
1328262749321,57.2210
1328262809321,57.1596
1328262869321,57.2269
1328262929321,57.2198
1328262989321,57.3114
1328263049321,57.2315
1328263109321,57.2406
1328263169321,57.2585
1328263229333,57.1856
1328263289333,57.1737
1328263349333,57.1389
1328263409333,57.1575
1328263469333,57.0705
1328263529333,57.0438
1328263589333,57.0980
1328263649333,57.0871
1328263709333,57.1949
1328263769333,57.0813
1328263829333,57.1405
1328263889333,57.0936
1328263949333,57.1008
1328264009333,57.1984
1328264069333,57.1782
1328264129333,57.0692
1328264189333,57.0968
1328264249333,57.0062
1328264309333,57.1569
1328264369333,57.0566
1328264429333,57.1117
1328264489333,57.1278
1328264549333,57.2280
1328264609333,57.0436
1328264669333,57.1424
1328264729333,57.0094
1328264789333,56.9851
1328264849333,57.1243
1328264909333,57.2136
1328264969333,56.9413
1328265029333,57.1080
1328265089333,57.1305
1328265149333,56.9277
1328265209333,57.0739
1328265269333,57.1180
1328265329333,57.0751
1328265389333,57.0418
1328265449333,56.9438
1328265509333,57.0748
1328265569333,57.1823
1328265629333,56.8883
1328265689333,56.9491
1328265749333,56.9683
1328265809333,57.1577
1328265869333,57.0236
1328265929333,56.9868
1328265989333,57.0306
1328266049333,56.9719
1328266109333,57.1051
1328266169333,56.9372
1328266229333,56.9609
1328266289333,57.0137
1328266349333,57.0000
1328266409333,56.9352
1328266469333,57.0115
1328266529333,57.0304
1328266589333,57.0640
1328266649333,57.0642
1328266709333,57.0131
1328266769333,56.9606
1328266829345,56.9769
1328266889345,56.9908
1328266949345,57.1269
1328267009345,56.9917
1328267069345,57.0250
1328267129345,56.9673
1328267189345,56.9754
1328267249345,57.0102
1328267309345,56.8697
1328267369345,57.0431
1328267429345,57.0475
1328267489345,57.0771
1328267549345,56.9929
1328267609345,56.9677
1328267669345,57.0428
1328267729345,56.9348
1328267789345,56.9331
1328267849345,56.8564
1328267909345,57.0863
1328267969345,56.9892
1328268029345,57.0143
1328268089345,57.0160
1328268149345,57.0429
1328268209345,57.0156
1328268269345,56.8527
1328268329345,56.9000
1328268389345,56.8434
1328268449345,56.9397
1328268509345,56.8490
1328268569345,57.0464
1328268629345,57.0743
1328268689345,57.0507
1328268749345,56.9720
1328268809345,57.0346
1328268869345,57.0049
1328268929345,57.0889
1328268989345,56.9811
1328269049345,57.1233
1328269109345,57.1227
1328269169345,57.0626
1328269229345,57.0205
1328269289345,56.9697
1328269349345,56.9171
1328269409345,57.1680
1328269469345,56.9131
1328269529345,57.1005
1328269589345,57.1173
1328269649345,57.1328
1328269709345,56.9951
1328269769345,57.0102
1328269829345,57.1950
1328269889345,57.0386
1328269949345,56.9936
1328270009345,56.9687
1328270069345,57.2805
1328270129345,57.0286
1328270189345,57.1085
1328270249345,56.9802
1328270309345,57.1739
1328270369345,57.1098
1328270429357,57.0866
1328270489357,57.0128
1328270549357,57.1407
1328270609357,57.1663
1328270669357,56.9703
1328270729357,57.2723
1328270789357,57.2115
1328270849357,56.9621
1328270909357,57.0694
1328270969357,57.1058
1328271029357,57.0372
1328271089357,57.1125
1328271149357,57.1335
1328271209357,57.0881
1328271269357,57.1841
1328271329357,57.0562
1328271389357,57.2119
1328271449357,57.2556
1328271509357,56.9602
1328271569357,57.1105
1328271629357,57.0070
1328271689357,57.1592
1328271749357,57.0524
1328271809357,56.8513
1328271869357,57.0871
1328271929357,56.8734
1328271989357,57.1274
1328272049357,56.9385
1328272109357,57.1133
1328272169357,57.0175
1328272229357,57.0597
1328272289357,57.0029
1328272349357,57.0151
1328272409357,57.0370
1328272469357,56.9335
1328272529357,57.0970
1328272589357,56.9671
1328272649357,56.9646
1328272709357,57.0399
1328272769357,57.0794
1328272829357,57.0983
1328272889357,57.0830
1328272949357,57.0022
1328273009357,56.8064
1328273069357,57.0351
1328273129357,56.9301
1328273189357,56.8784
1328273249357,56.9711
1328273309357,56.9431
1328273369357,57.1001
1328273429357,57.0609
1328273489357,57.0808
1328273549357,56.9922
1328273609357,56.9999
1328273669357,57.0719
1328273729357,56.8399
1328273789357,57.1648
1328273849357,57.0572
1328273909357,56.7898
1328273969357,57.0159
1328274029369,56.9020
1328274089369,56.9345
1328274149369,56.9507
1328274209369,56.9528
1328274269369,56.9631
1328274329369,56.9233
1328274389369,56.9713
1328274449369,56.8380
1328274509369,56.8110
1328274569369,56.7700
1328274629369,56.9207
1328274689369,56.8560
1328274749369,56.7118
1328274809369,56.9737
1328274869369,56.9049
1328274929369,56.7840
1328274989369,57.0056
1328275049369,56.8689
1328275109369,56.8676
1328275169369,56.8935
1328275229369,57.0870
1328275289369,56.9411
1328275349369,56.9640
1328275409369,56.8574
1328275469369,56.9709
1328275529369,56.9257
1328275589369,56.8030
1328275649369,56.9258
1328275709369,56.8879
1328275769369,56.8286
1328275829369,56.8422
1328275889369,56.9145
1328275949369,56.9483
1328276009369,56.9806
1328276069369,57.1407
1328276129369,56.9836
1328276189369,57.1185
1328276249369,56.8539
1328276309369,56.8286
1328276369369,56.9321
1328276429369,56.9492
1328276489369,56.7817
1328276549369,57.0121
1328276609369,56.9889
1328276669369,56.9917
1328276729369,56.8875
1328276789369,56.9590
1328276849369,56.9704
1328276909369,57.0235
1328276969369,56.8192
1328277029369,56.7477
1328277089369,56.8531
1328277149369,56.9368
1328277209369,56.8896
1328277269369,56.9389
1328277329369,56.8253
1328277389369,56.8448
1328277449369,56.8232
1328277509369,56.7442
1328277569369,56.7561
1328277629381,56.7730
1328277689381,56.6977
1328277749381,56.8039
1328277809381,56.7574
1328277869381,56.6353
1328277929381,56.9596
1328277989381,56.7964
1328278049381,56.9313
1328278109381,56.6873
1328278169381,56.9385
1328278229381,56.9032
1328278289381,56.8210
1328278349381,56.8147
1328278409381,56.8224
1328278469381,56.8530
1328278529381,56.8151
1328278589381,56.9584
1328278649381,56.7933
1328278709381,56.7731
1328278769381,56.7902
1328278829381,56.6772
1328278889381,56.8989
1328278949381,56.7686
1328279009381,56.9390
1328279069381,56.8597
1328279129381,56.8853
1328279189381,56.7949
1328279249381,56.9329
1328279309381,56.7335
1328279369381,56.8121
1328279429381,56.6809
1328279489381,56.8591
1328279549381,56.8223
1328279609381,56.9208
1328279669381,56.8799
1328279729381,56.9344
1328279789381,56.9082
1328279849381,56.8487
1328279909381,56.7784
1328279969381,56.6635
1328280029381,56.8556
1328280089381,56.7339
1328280149381,56.8374
1328280209381,56.8150
1328280269381,56.7083
1328280329381,56.7767
1328280389381,56.7790
1328280449381,56.7976
1328280509381,56.9061
1328280569381,56.7795
1328280629381,56.8301
1328280689381,56.7963
1328280749381,56.6525
1328280809381,56.7915
1328280869381,56.8672
1328280929381,56.8260
1328280989381,56.8088
1328281049381,56.7610
1328281109381,56.7814
1328281169381,56.7718
1328281229392,56.7128
1328281289392,56.8168
1328281349392,56.8497
1328281409392,56.8077
1328281469392,56.7451
1328281529392,56.8287
1328281589392,56.8149
1328281649392,56.7539
1328281709392,56.8644
1328281769392,56.7126
1328281829392,56.8173
1328281889392,56.7915
1328281949392,56.7430
1328282009392,56.9760
1328282069392,56.8595
1328282129392,56.6286
1328282189392,56.8183
1328282249392,56.8241
1328282309392,56.7609
1328282369392,56.7304
1328282429392,56.7999
1328282489392,56.8315
1328282549392,56.7284
1328282609392,56.7669
1328282669392,56.8325
1328282729392,56.9742
1328282789392,56.7412
1328282849392,56.8349
1328282909392,56.7633
1328282969392,56.8219
1328283029392,56.8787
1328283089392,56.8480
1328283149392,56.7664
1328283209392,56.7673
1328283269392,56.7812
1328283329392,56.9177
1328283389392,56.8365
1328283449392,56.8269
1328283509392,56.6712
1328283569392,56.7535
1328283629392,56.8520
1328283689392,56.7285
1328283749392,56.8333
1328283809392,56.8900
1328283869392,56.8195
1328283929392,56.9441
1328283989392,56.9390
1328284049392,57.0244
1328284109392,56.8863
1328284169392,56.7522
1328284229392,56.8134
1328284289392,56.8540
1328284349392,56.9572
1328284409392,56.9441
1328284469392,56.8355
1328284529392,56.7315
1328284589392,56.9545
1328284649392,56.8293
1328284709392,56.8954
1328284769392,56.9075
1328284829404,56.8860
1328284889404,56.9330
1328284949404,57.0267
1328285009404,56.7997
1328285069404,56.8916
1328285129404,56.9096
1328285189404,56.8742
1328285249404,56.9215
1328285309404,56.9815
1328285369404,56.7798
1328285429404,56.8217
1328285489404,56.9544
1328285549404,56.8019
1328285609404,57.1031
1328285669404,57.1026
1328285729404,56.8852
1328285789404,56.8374
1328285849404,56.8766
1328285909404,56.8872
1328285969404,56.9257
1328286029404,56.8946
1328286089404,56.8767
1328286149404,57.0553
1328286209404,56.8781
1328286269404,57.0048
1328286329404,56.8594
1328286389404,57.0184
1328286449404,57.0076
1328286509404,57.0116
1328286569404,56.8907
1328286629404,57.0058
1328286689404,57.0661
1328286749404,57.0607
1328286809404,57.0479
1328286869404,56.9316
1328286929404,57.0965
1328286989404,56.8985
1328287049404,57.0222
1328287109404,56.8815
1328287169404,57.0479
1328287229404,57.0361
1328287289404,56.9462
1328287349404,56.9344
1328287409404,57.0747
1328287469404,56.9541
1328287529404,56.9800
1328287589404,57.0522
1328287649404,57.0227
1328287709404,57.1225
1328287769404,56.9809
1328287829404,56.9746
1328287889404,57.0690
1328287949404,57.0742
1328288009404,56.8649
1328288069404,56.9872
1328288129404,56.8595
1328288189404,56.9778
1328288249404,57.1616
1328288309404,57.0279
1328288369404,57.0918
1328288429415,57.0765
1328288489415,56.9964
1328288549415,57.1243
1328288609415,56.9613
1328288669415,57.0138
1328288729415,57.0384
1328288789415,57.0110
1328288849415,57.0069
1328288909415,56.9568
1328288969415,57.0427
1328289029415,57.1068
1328289089415,56.9838
1328289149415,56.9959
1328289209415,56.9899
1328289269415,57.1383
1328289329415,57.1846
1328289389415,57.0576
1328289449415,57.1454
1328289509415,56.9654
1328289569415,57.0389
1328289629415,57.1297
1328289689415,57.1306
1328289749415,57.0783
1328289809415,57.1562
1328289869415,57.1712
1328289929415,56.9776
1328289989415,56.9746
1328290049415,57.2891
1328290109415,57.2116
1328290169415,57.0936
1328290229415,57.2307
1328290289415,57.0992
1328290349415,57.1850
1328290409415,57.3455
1328290469415,57.0042
1328290529415,57.1040
1328290589415,57.1303
1328290649415,57.1701
1328290709415,57.1834
1328290769415,57.0854
1328290829415,57.0940
1328290889415,57.1815
1328290949415,57.0926
1328291009415,57.1921
1328291069415,57.1641
1328291129415,57.1102
1328291189415,57.2151
1328291249415,57.0757
1328291309415,57.0482
1328291369415,57.0613
1328291429415,57.1258
1328291489415,57.1435
1328291549415,57.1637
1328291609415,57.0660
1328291669415,57.1367
1328291729415,56.9900
1328291789415,57.1915
1328291849415,57.0179
1328291909415,57.1231
1328291969415,56.9127
1328292029422,56.9467
1328292089422,56.9624
1328292149422,57.0273
1328292209422,57.1503
1328292269422,57.0158
1328292329422,56.9533
1328292389422,57.1100
1328292449422,57.0936
1328292509422,56.8350
1328292569422,57.0259